Precipitable_Water
0.30 0.36 0.47 0.43 0.18 0.23 0.20 0.23 0.34 0.28 0.26 0.31 0.36 0.43 0.43 0.49 0.59 0.54 1.13 1.32 1.38 1.38 1.42 1.45 1.45 1.42 1.41 1.39 1.31 1.27 1.25 1.25 1.35 1.52 1.57 1.57 1.69 1.77 1.83 1.87 1.83 1.82 1.78 1.72 1.50 1.49 1.39 1.37 1.29
0.30 0.43 0.38 0.30 0.12 0.11 0.15 0.27 0.24 0.29 0.27 0.29 0.32 0.41 0.59 0.69 0.95 1.08 1.08 1.36 1.40 1.35 1.35 1.41 1.42 1.39 1.37 1.37 1.30 1.22 1.22 1.25 1.37 1.52 1.62 1.63 1.72 1.83 1.87 1.79 1.73 1.78 1.74 1.57 1.54 1.51 1.44 1.35 1.22
0.30 0.44 0.22 0.15 0.12 0.08 0.11 0.22 0.23 0.28 0.28 0.28 0.33 0.51 0.57 0.82 1.13 1.15 1.31 1.36 1.45 1.39 1.35 1.39 1.42 1.37 1.32 1.32 1.31 1.25 1.23 1.26 1.38 1.52 1.68 1.67 1.78 1.90 1.91 1.78 1.72 1.68 1.62 1.46 1.50 1.47 1.42 1.27 1.20
0.27 0.30 0.24 0.12 0.06 0.12 0.13 0.19 0.25 0.25 0.28 0.29 0.36 0.52 1.02 1.17 1.20 1.33 1.42 1.39 1.30 1.35 1.38 1.41 1.36 1.32 1.29 1.28 1.31 1.31 1.25 1.29 1.39 1.53 1.64 1.75 1.87 1.94 1.94 1.77 1.73 1.61 1.60 1.63 1.56 1.48 1.38 1.24 1.20
0.32 0.27 0.12 0.10 0.11 0.14 0.16 0.20 0.28 0.25 0.27 0.27 0.35 0.63 0.94 1.32 1.53 1.48 1.42 1.39 1.22 1.26 1.34 1.32 1.32 1.27 1.25 1.26 1.28 1.33 1.33 1.33 1.43 1.53 1.67 1.85 1.97 1.96 1.95 1.81 1.73 1.59 1.62 1.56 1.50 1.43 1.40 1.26 1.19
0.21 0.23 0.11 0.08 0.12 0.17 0.21 0.21 0.27 0.29 0.28 0.26 0.28 0.59 0.99 1.49 1.39 1.46 1.46 1.39 1.34 1.23 1.26 1.24 1.22 1.24 1.25 1.23 1.30 1.36 1.40 1.38 1.45 1.56 1.67 1.88 2.02 1.96 1.92 1.92 1.76 1.67 1.64 1.48 1.44 1.40 1.33 1.30 1.19
0.18 0.16 0.11 0.11 0.12 0.12 0.16 0.24 0.23 0.27 0.26 0.25 0.33 0.47 0.86 1.17 1.38 1.52 1.52 1.42 1.27 1.21 1.13 1.12 1.16 1.21 1.27 1.31 1.39 1.39 1.43 1.46 1.52 1.58 1.67 1.84 1.98 1.90 1.85 2.00 1.81 1.71 1.62 1.44 1.41 1.37 1.32 1.32 1.26
0.24 0.19 0.14 0.14 0.12 0.12 0.20 0.21 0.22 0.25 0.23 0.32 0.47 0.55 0.65 1.05 1.37 1.51 1.50 1.37 1.24 1.20 1.12 1.11 1.13 1.17 1.24 1.36 1.45 1.43 1.46 1.52 1.55 1.60 1.67 1.81 1.94 1.91 1.88 1.98 1.84 1.73 1.58 1.45 1.40 1.38 1.38 1.31 1.29
0.29 0.15 0.11 0.13 0.14 0.15 0.20 0.17 0.19 0.22 0.23 0.28 0.32 0.46 0.72 1.29 1.45 1.35 1.31 1.22 1.23 1.20 1.24 1.23 1.18 1.16 1.20 1.30 1.43 1.50 1.51 1.56 1.59 1.59 1.73 1.82 1.89 1.96 1.92 1.95 1.87 1.78 1.48 1.47 1.52 1.49 1.45 1.41 1.32
0.20 0.13 0.14 0.20 0.19 0.17 0.18 0.15 0.16 0.16 0.21 0.23 0.27 0.34 0.67 0.91 1.21 1.07 1.13 1.19 1.26 1.37 1.35 1.36 1.31 1.26 1.24 1.26 1.39 1.50 1.55 1.56 1.60 1.59 1.68 1.80 1.91 1.99 1.90 1.94 1.96 1.71 1.50 1.53 1.61 1.55 1.52 1.48 1.36
0.18 0.13 0.16 0.16 0.16 0.15 0.15 0.15 0.18 0.16 0.17 0.29 0.29 0.32 0.42 0.53 0.70 0.80 0.88 0.91 1.01 1.32 1.39 1.42 1.44 1.35 1.34 1.31 1.39 1.45 1.52 1.56 1.58 1.61 1.66 1.76 1.90 2.02 1.93 1.95 1.88 1.68 1.60 1.59 1.62 1.61 1.54 1.45 1.33
0.11 0.14 0.15 0.15 0.16 0.14 0.13 0.15 0.17 0.22 0.25 0.30 0.32 0.35 0.36 0.39 0.44 0.57 0.67 0.72 0.82 1.01 1.10 1.37 1.54 1.44 1.28 1.41 1.43 1.47 1.48 1.53 1.54 1.64 1.67 1.70 1.83 1.89 1.90 1.94 1.79 1.62 1.70 1.60 1.59 1.66 1.59 1.45 1.38
0.09 0.12 0.15 0.16 0.15 0.13 0.14 0.14 0.18 0.21 0.26 0.29 0.27 0.31 0.33 0.38 0.43 0.44 0.50 0.56 0.68 0.84 0.94 1.05 1.30 1.45 1.40 1.34 1.48 1.50 1.51 1.52 1.53 1.66 1.70 1.69 1.82 1.78 1.87 1.87 1.76 1.67 1.74 1.69 1.66 1.65 1.58 1.43 1.38
0.13 0.13 0.13 0.13 0.12 0.12 0.14 0.17 0.18 0.23 0.26 0.25 0.24 0.25 0.30 0.33 0.37 0.40 0.41 0.41 0.48 0.66 0.78 0.88 1.02 1.29 1.43 1.37 1.37 1.51 1.53 1.54 1.54 1.64 1.71 1.65 1.83 1.86 1.86 1.82 1.75 1.65 1.71 1.75 1.73 1.68 1.62 1.49 1.38
0.17 0.13 0.13 0.12 0.13 0.12 0.13 0.14 0.18 0.26 0.26 0.23 0.22 0.23 0.26 0.30 0.35 0.37 0.41 0.43 0.47 0.51 0.54 0.71 0.88 1.10 1.34 1.39 1.39 1.49 1.54 1.58 1.55 1.60 1.73 1.67 1.68 1.87 1.84 1.80 1.77 1.71 1.75 1.78 1.79 1.70 1.69 1.51 1.42
0.10 0.11 0.08 0.11 0.13 0.14 0.12 0.12 0.21 0.26 0.24 0.21 0.21 0.23 0.23 0.25 0.30 0.36 0.41 0.44 0.47 0.52 0.49 0.61 0.82 0.98 1.23 1.36 1.40 1.40 1.52 1.53 1.61 1.62 1.71 1.71 1.66 1.88 1.87 1.83 1.78 1.77 1.78 1.75 1.75 1.73 1.66 1.53 1.43
0.08 0.06 0.07 0.08 0.12 0.13 0.14 0.15 0.22 0.25 0.24 0.22 0.22 0.22 0.22 0.24 0.26 0.31 0.37 0.41 0.46 0.51 0.55 0.58 0.75 0.90 1.05 1.34 1.40 1.41 1.44 1.46 1.55 1.68 1.69 1.73 1.68 1.84 1.84 1.82 1.80 1.78 1.71 1.66 1.75 1.75 1.64 1.50 1.39
0.06 0.07 0.08 0.08 0.10 0.12 0.15 0.16 0.21 0.24 0.23 0.23 0.23 0.23 0.22 0.23 0.25 0.29 0.32 0.39 0.44 0.48 0.56 0.59 0.66 0.81 0.97 1.18 1.35 1.39 1.40 1.47 1.50 1.62 1.71 1.73 1.73 1.79 1.85 1.81 1.80 1.78 1.71 1.69 1.75 1.72 1.70 1.57 1.43
0.06 0.05 0.05 0.06 0.10 0.11 0.15 0.16 0.19 0.21 0.22 0.22 0.24 0.24 0.23 0.23 0.27 0.31 0.32 0.35 0.41 0.46 0.52 0.56 0.62 0.78 0.87 1.03 1.12 1.26 1.26 1.30 1.41 1.55 1.73 1.76 1.73 1.73 1.79 1.75 1.75 1.73 1.68 1.70 1.72 1.73 1.61 1.58 1.49
0.05 0.04 0.04 0.06 0.09 0.10 0.15 0.15 0.19 0.21 0.21 0.23 0.23 0.24 0.25 0.25 0.25 0.28 0.30 0.31 0.34 0.41 0.47 0.55 0.58 0.68 0.86 0.92 1.06 1.18 1.30 1.36 1.37 1.46 1.62 1.78 1.77 1.66 1.63 1.71 1.63 1.61 1.56 1.63 1.69 1.69 1.57 1.55 1.48
0.06 0.05 0.05 0.07 0.08 0.10 0.07 0.12 0.17 0.21 0.22 0.24 0.26 0.27 0.27 0.26 0.25 0.26 0.28 0.30 0.33 0.35 0.44 0.52 0.58 0.64 0.78 0.93 1.01 1.18 1.41 1.37 1.37 1.40 1.46 1.64 1.80 1.73 1.70 1.63 1.52 1.49 1.44 1.47 1.62 1.64 1.61 1.40 1.25
0.05 0.07 0.08 0.08 0.11 0.09 0.11 0.07 0.17 0.20 0.21 0.23 0.24 0.25 0.24 0.24 0.26 0.27 0.28 0.29 0.32 0.34 0.40 0.49 0.58 0.62 0.70 0.91 0.95 1.04 1.19 1.21 1.31 1.31 1.48 1.58 1.76 1.77 1.65 1.64 1.57 1.48 1.30 1.31 1.31 1.55 1.57 1.32 1.17
0.09 0.10 0.10 0.10 0.13 0.14 0.10 0.11 0.14 0.19 0.19 0.21 0.23 0.24 0.24 0.23 0.23 0.24 0.27 0.30 0.34 0.37 0.37 0.44 0.54 0.63 0.67 0.78 0.93 0.98 1.12 1.27 1.37 1.38 1.47 1.45 1.58 1.76 1.72 1.72 1.59 1.52 1.48 1.42 1.32 1.16 1.23 1.31 1.22
0.12 0.13 0.11 0.13 0.15 0.10 0.12 0.11 0.12 0.14 0.18 0.21 0.24 0.26 0.25 0.24 0.23 0.24 0.28 0.30 0.33 0.36 0.38 0.41 0.49 0.58 0.66 0.74 0.87 0.97 1.01 1.13 1.30 1.33 1.39 1.39 1.52 1.62 1.69 1.64 1.54 1.55 1.55 1.46 1.37 1.25 1.10 1.20 1.30
0.10 0.12 0.07 0.07 0.10 0.09 0.16 0.12 0.13 0.18 0.21 0.22 0.23 0.24 0.24 0.24 0.22 0.23 0.24 0.28 0.30 0.33 0.36 0.40 0.44 0.53 0.61 0.70 0.78 0.94 1.01 1.09 1.20 1.37 1.33 1.36 1.39 1.50 1.56 1.63 1.54 1.59 1.56 1.51 1.43 1.39 1.18 1.17 1.25
0.10 0.12 0.10 0.07 0.09 0.10 0.15 0.10 0.13 0.21 0.25 0.25 0.24 0.25 0.25 0.24 0.23 0.24 0.24 0.27 0.29 0.31 0.35 0.38 0.42 0.47 0.59 0.64 0.73 0.84 0.94 1.03 1.11 1.31 1.44 1.46 1.40 1.47 1.58 1.65 1.63 1.58 1.50 1.51 1.42 1.41 1.29 1.25 1.31
0.09 0.07 0.14 0.13 0.14 0.10 0.11 0.13 0.18 0.17 0.20 0.21 0.22 0.23 0.23 0.25 0.24 0.24 0.26 0.27 0.29 0.30 0.34 0.37 0.41 0.46 0.54 0.62 0.69 0.76 0.92 0.98 1.04 1.26 1.34 1.55 1.45 1.56 1.54 1.59 1.64 1.59 1.55 1.46 1.47 1.36 1.21 1.36 1.42
0.10 0.13 0.08 0.12 0.08 0.07 0.10 0.10 0.11 0.14 0.16 0.18 0.19 0.20 0.22 0.25 0.26 0.27 0.26 0.26 0.28 0.30 0.33 0.37 0.39 0.44 0.51 0.60 0.64 0.72 0.80 0.92 1.05 1.09 1.27 1.26 1.56 1.54 1.53 1.53 1.57 1.60 1.56 1.53 1.50 1.40 1.34 1.40 1.53
0.08 0.08 0.10 0.11 0.09 0.08 0.07 0.09 0.16 0.14 0.15 0.15 0.17 0.19 0.20 0.22 0.24 0.27 0.28 0.29 0.28 0.30 0.31 0.34 0.37 0.42 0.49 0.57 0.62 0.67 0.75 0.87 0.97 1.06 1.15 1.26 1.32 1.45 1.59 1.48 1.56 1.51 1.52 1.48 1.40 1.41 1.40 1.32 1.38
0.12 0.10 0.11 0.07 0.06 0.09 0.08 0.09 0.15 0.15 0.15 0.15 0.15 0.17 0.19 0.20 0.22 0.22 0.26 0.29 0.30 0.29 0.31 0.32 0.36 0.39 0.47 0.53 0.61 0.63 0.67 0.77 0.85 0.99 1.09 1.20 1.34 1.40 1.55 1.55 1.47 1.49 1.52 1.48 1.37 1.33 1.43 1.43 1.36
Wind_Speed
11 11 11 10 9 8 10 10 9 11 12 14 16 16 14 12 12 10 8 8 8 9 9 9 7 7 6 5 5 6 7 9 11 12 12 13 14 16 16 15 16 17 18 19 19 18 18 18 17
10 10 9 9 8 8 10 9 9 10 13 15 13 12 14 11 10 9 6 8 8 8 9 9 8 7 7 6 5 6 8 9 11 13 13 14 16 17 16 17 18 18 18 19 18 18 17 17 17
10 9 9 8 8 10 10 10 12 11 13 12 12 12 13 11 11 10 7 8 9 9 9 9 9 8 8 8 6 6 8 9 12 13 14 16 17 18 18 20 20 19 19 19 19 18 18 17 16
9 9 9 8 9 9 9 11 12 12 12 11 11 11 11 10 11 10 10 8 8 9 10 10 10 9 9 9 9 7 8 10 12 14 15 17 19 19 20 22 21 20 19 19 19 18 17 17 16
9 10 9 8 10 10 11 12 10 10 12 13 10 11 11 10 9 9 10 9 8 9 9 10 10 10 10 10 10 9 9 11 13 14 15 18 20 21 21 23 22 21 20 19 19 18 18 17 17
10 10 10 10 10 11 12 11 12 10 13 14 11 11 10 11 10 11 11 10 9 9 10 10 10 10 11 11 11 11 11 12 13 15 16 18 20 20 20 24 23 21 20 19 19 19 19 18 17
10 10 11 11 12 11 12 12 12 12 12 12 12 10 11 11 13 13 11 12 11 10 11 10 11 11 12 11 12 12 12 12 14 15 16 18 20 21 19 25 23 22 21 21 21 20 19 18 17
11 11 11 12 12 13 13 13 14 11 12 12 11 11 11 14 15 14 13 12 13 12 12 11 11 12 12 12 12 12 12 13 14 15 17 19 20 21 21 26 24 23 22 22 21 21 20 18 17
10 10 12 13 13 14 14 13 13 10 11 11 10 10 15 14 15 15 15 14 14 15 14 12 12 13 14 14 14 14 14 14 15 15 17 18 20 22 21 26 24 24 24 24 22 21 20 19 16
10 10 13 12 14 15 13 13 15 13 12 14 14 13 12 12 13 14 14 15 15 15 16 16 15 15 15 16 16 15 15 15 16 16 17 18 21 21 21 25 25 25 26 25 23 22 21 19 17
12 12 13 13 14 14 13 9 12 15 13 15 16 16 16 15 16 16 17 17 18 18 18 17 17 16 17 17 17 17 17 16 17 17 18 18 20 22 22 27 27 26 27 26 24 22 21 20 18
13 14 14 16 15 15 14 13 8 9 14 15 16 17 17 18 19 20 20 21 20 20 20 21 21 20 18 18 19 18 18 18 18 19 19 20 20 21 25 28 27 27 28 27 25 24 22 21 20
14 16 18 17 16 15 12 11 11 11 14 16 17 17 18 19 21 22 23 24 23 22 23 23 22 24 22 20 20 20 20 20 20 20 21 21 23 22 28 29 29 29 27 28 26 25 23 22 21
17 18 17 16 16 15 15 17 18 18 18 17 17 18 20 21 22 24 24 25 25 25 25 25 24 24 25 24 22 22 21 22 22 22 22 22 24 22 30 30 31 30 29 28 28 27 25 23 23
18 18 18 17 20 19 22 19 18 21 20 19 19 19 21 22 23 24 26 26 27 27 27 27 25 24 27 27 25 24 23 23 23 23 24 24 25 25 24 29 33 31 30 30 29 30 27 25 24
19 17 19 19 20 22 22 22 22 22 21 21 21 21 22 22 24 25 26 27 27 27 28 28 28 28 29 30 28 26 25 24 25 25 26 26 26 28 26 29 31 33 32 32 32 32 31 27 25
19 23 24 25 22 25 23 24 24 24 23 23 24 23 23 24 23 25 26 27 28 28 28 29 29 29 29 33 32 30 27 27 26 27 26 28 27 29 28 28 30 34 35 31 30 32 33 29 26
24 25 27 28 28 26 22 24 25 26 25 25 26 26 25 25 25 26 26 27 27 27 28 29 30 30 31 30 34 33 31 29 28 28 28 28 27 29 27 28 27 31 36 36 34 35 34 31 28
27 29 33 32 29 29 26 27 27 27 27 26 26 27 27 27 27 27 27 27 27 27 27 28 29 31 31 30 30 36 33 32 30 29 30 29 28 28 28 31 23 26 34 37 37 36 35 33 30
32 36 38 37 33 31 30 28 28 26 26 26 27 26 27 28 28 28 28 28 28 28 27 27 28 30 31 33 32 32 36 34 32 31 31 30 30 27 26 30 24 24 33 37 38 34 33 33 32
35 36 38 42 41 40 38 32 29 27 26 26 25 26 26 27 28 28 29 29 28 28 28 28 29 29 32 33 33 32 36 35 34 33 32 31 32 31 30 27 25 23 28 37 38 36 36 33 33
40 36 36 35 31 27 25 26 22 25 25 24 24 24 25 25 26 27 28 29 29 29 29 29 29 29 30 32 33 33 33 36 36 34 33 32 32 33 32 31 27 25 24 31 36 37 39 36 35
33 34 31 28 24 19 18 17 18 20 21 21 22 23 24 25 25 26 26 28 29 29 29 29 29 30 30 33 33 34 35 33 37 36 35 34 33 33 33 35 31 29 29 28 32 39 39 38 37
29 28 22 10 10 7 10 11 6 11 16 19 20 21 22 23 24 25 25 25 27 28 28 28 29 29 30 31 34 35 36 35 35 38 37 35 34 34 34 35 35 35 31 31 31 37 43 42 39
30 24 14 10 7 7 9 7 1 7 10 12 16 18 19 21 22 23 23 24 24 26 28 28 28 30 31 32 33 34 36 35 36 34 39 38 36 35 34 36 36 37 33 33 31 34 42 44 41
23 17 12 10 10 6 5 2 5 9 10 11 12 14 16 18 20 20 21 22 23 24 25 27 28 29 30 32 32 33 34 37 38 36 37 41 39 37 37 35 35 38 35 36 33 33 39 44 42
21 16 14 7 7 5 2 5 6 14 12 13 15 15 15 16 17 18 19 20 22 23 24 25 27 28 30 31 32 33 34 36 38 36 39 37 40 38 38 39 37 37 38 36 35 34 37 43 44
16 17 11 9 8 4 3 3 7 14 15 14 15 16 16 16 16 16 17 19 20 22 23 25 25 27 29 31 32 33 33 35 37 40 39 38 37 40 40 39 41 40 38 39 38 36 37 37 40
18 15 12 7 7 6 5 5 8 12 14 15 16 16 17 16 17 16 17 17 18 20 21 23 24 25 28 30 32 33 33 32 35 37 38 39 38 43 41 41 40 39 39 41 41 39 39 40 40
16 14 13 10 9 6 5 7 10 12 15 15 16 16 16 16 17 17 16 16 17 18 19 21 23 24 25 29 31 32 33 33 32 33 38 37 38 36 38 41 42 42 40 40 43 42 42 41 40
Wind_Direction
268 262 258 258 257 258 257 251 245 280 284 274 268 255 247 251 244 259 263 223 216 205 206 210 213 212 207 204 209 209 204 202 196 193 189 186 180 177 174 169 163 156 154 152 150 149 148 147 146
264 257 259 255 255 256 255 241 252 267 281 287 268 253 241 243 240 255 236 220 208 203 206 211 211 211 211 211 214 211 207 205 199 195 193 189 185 181 176 173 167 163 159 158 155 155 153 151 149
258 259 259 259 255 245 243 245 263 268 288 292 268 246 241 242 242 223 237 211 211 212 216 219 218 217 216 217 218 217 210 208 201 198 196 192 187 185 180 177 171 166 163 161 161 159 156 157 154
261 264 266 261 256 255 249 263 265 270 279 294 275 245 238 241 225 227 211 210 216 220 222 220 218 220 220 222 223 221 216 210 205 203 202 197 193 189 184 180 175 172 169 166 164 164 163 162 159
268 267 266 268 261 257 260 264 269 267 280 283 285 257 239 230 227 212 204 214 212 214 219 223 221 223 225 228 228 226 221 213 208 209 207 202 198 194 190 181 178 176 173 172 170 168 166 164 162
271 266 271 264 267 265 262 261 270 266 272 276 278 253 234 229 220 211 214 214 219 222 224 227 229 230 231 231 230 227 222 217 212 212 210 206 201 199 197 183 179 178 177 176 174 171 168 166 165
267 270 265 269 268 267 257 269 267 262 270 266 270 250 237 236 222 216 218 224 231 231 229 233 235 235 234 233 230 226 224 220 215 214 212 207 204 202 199 188 183 182 181 179 176 174 171 169 168
272 271 273 270 265 263 260 274 266 260 253 267 272 252 250 241 226 225 228 233 239 239 235 242 245 239 237 234 230 226 224 222 220 216 214 209 206 206 202 191 187 185 183 180 178 176 174 171 170
276 281 273 268 263 263 274 272 262 253 253 260 268 262 264 250 235 232 236 243 242 241 241 248 250 245 240 237 233 229 228 224 222 219 214 210 208 210 204 190 187 188 186 182 179 178 176 175 173
284 280 267 270 272 274 276 269 262 251 261 264 270 273 263 252 247 245 250 248 247 246 244 249 252 249 242 238 235 232 230 227 223 220 215 212 210 206 199 193 190 190 187 185 186 184 182 183 183
285 276 277 280 279 278 265 273 270 255 261 261 264 267 264 260 257 256 256 257 259 259 252 252 248 248 241 240 235 233 231 228 224 220 217 215 208 201 208 195 193 191 189 189 190 189 191 191 189
287 286 287 285 288 280 270 259 278 271 255 261 260 262 264 262 261 260 260 261 262 260 259 257 253 247 242 239 235 233 231 228 226 222 218 213 210 212 202 194 194 193 192 193 196 195 195 194 193
283 284 287 287 284 285 275 268 255 278 268 264 265 264 264 263 262 262 262 261 261 261 260 258 256 247 244 240 235 233 232 229 226 222 219 217 213 215 205 204 200 197 198 198 198 197 196 195 193
287 286 286 288 285 283 270 274 256 277 273 271 267 267 266 267 268 265 266 264 262 261 260 257 253 248 241 241 237 234 232 229 227 224 221 220 216 217 209 204 201 201 202 200 201 200 198 198 195
292 288 283 291 289 277 268 273 273 273 271 271 270 268 267 268 269 268 267 265 263 261 260 255 253 251 241 239 239 235 233 229 229 227 223 222 220 216 213 206 208 209 206 205 205 203 201 197 195
300 293 292 289 294 281 275 265 273 274 270 270 271 269 269 269 268 268 268 266 265 263 259 255 253 248 245 240 237 236 234 231 229 228 225 224 223 219 220 217 213 212 214 212 212 207 201 198 198
307 292 293 289 294 285 279 265 274 274 273 271 270 269 269 269 271 268 270 267 265 264 260 256 252 248 248 239 236 235 235 232 231 229 227 226 226 220 223 219 215 219 218 215 211 201 201 200 199
301 297 293 289 292 288 279 270 272 274 273 272 270 268 267 269 270 270 270 268 267 264 261 256 251 249 246 244 237 236 235 233 232 230 229 226 226 224 228 216 223 223 215 213 207 205 201 201 202
304 298 293 286 287 287 273 269 271 273 273 273 271 269 268 267 267 268 268 269 266 265 263 258 253 249 244 241 241 234 234 232 232 231 228 227 227 225 225 226 226 217 214 210 207 205 210 205 205
311 303 297 288 289 285 270 268 269 271 272 272 272 270 269 268 267 268 268 268 267 264 262 258 255 250 243 240 241 239 233 233 232 231 230 227 225 225 230 216 225 223 214 208 206 205 203 204 202
313 301 299 290 289 277 266 261 264 268 270 270 271 270 270 270 269 267 267 266 266 265 261 258 255 252 244 242 240 239 232 231 230 231 230 229 224 223 222 222 223 226 215 206 208 207 204 202 203
315 309 303 295 292 281 264 253 262 269 270 272 274 275 273 273 270 268 267 266 263 263 261 257 254 251 247 242 238 238 236 230 231 230 230 229 226 223 222 222 222 217 211 207 211 210 206 206 205
318 317 309 301 295 285 267 248 270 267 275 279 278 279 278 276 274 271 268 265 262 261 261 257 253 249 248 242 239 237 235 237 230 229 229 229 227 225 223 221 222 217 216 215 213 212 212 211 210
329 328 322 326 334 317 281 217 293 286 287 283 282 282 282 280 275 272 268 267 262 261 260 258 253 250 247 244 239 238 236 237 233 228 229 228 228 227 225 223 223 220 222 222 221 219 217 216 215
345 351 345 347 356 10 36 91 48 334 309 300 295 290 285 285 280 275 272 268 267 264 261 257 255 249 247 245 241 239 235 234 233 234 229 227 228 227 227 223 225 220 225 224 223 223 218 217 218
345 350 351 338 344 354 18 79 14 350 337 336 320 308 300 293 286 280 276 270 268 266 263 259 256 251 247 245 243 239 237 233 233 234 232 229 229 230 229 227 226 224 226 225 226 225 220 217 220
342 351 331 328 23 15 36 345 309 352 347 341 337 332 321 309 297 287 281 274 270 268 265 262 257 252 247 244 242 240 239 235 233 234 233 232 230 229 229 229 228 225 226 227 227 227 223 221 222
349 343 348 347 348 357 359 328 333 340 342 339 341 339 336 326 316 301 291 281 274 271 266 263 259 254 248 243 242 241 239 238 236 236 235 231 231 230 230 230 230 228 228 228 227 226 221 221 223
354 355 355 332 349 331 325 309 326 337 335 331 332 331 329 331 329 318 304 291 280 274 270 264 261 257 250 243 242 241 239 239 237 236 236 235 235 232 233 229 228 227 228 228 227 227 226 225 227
356 352 349 352 333 333 314 287 319 324 329 331 327 327 329 329 331 330 323 305 290 283 274 267 262 257 252 245 242 242 240 239 239 238 237 236 235 232 230 230 229 228 229 229 228 228 228 226 227